Skagway, AK

3:58 AM AKDT on April 19, 2018 (GMT -0800)
Skagway

Weather History for PAGY - September, 2012

Change the Weather History Date:

Thursday, September 6, 2012

  Actual Average Record
Temperature  
Mean Temperature 55 °F -  
Max Temperature 57 °F 56 °F 74 °F (1986)
Min Temperature 53 °F 45 °F 39 °F (1987)
Degree Days  
Heating Degree Days 10    
Growing Degree Days 5 (Base 50)    
Moisture  
Dew Point 43 °F    
Average Humidity 64    
Maximum Humidity 71    
Minimum Humidity 59    
Precipitation  
Precipitation 0.00 in - - ()
Sea Level Pressure  
Sea Level Pressure 30.19 in    
Wind  
Wind Speed 22 mph (SSW)    
Max Wind Speed 26 mph    
Max Gust Speed 36 mph    
Visibility 10 miles    
Events      
Averages and records for this station are not official NWS values.
T = Trace of Precipitation, MM = Missing Value Source: NWS Daily Summary

Daily Weather History Graph

Daily Weather History Graph

Search for Another Location

Airport or City:

Astronomy

Sep. 06, 2012 Rise Set
Actual Time 6:10 AM AKDT 7:46 PM AKDT
Civil Twilight 5:27 AM AKDT 8:29 PM AKDT
Nautical Twilight 4:33 AM AKDT 9:22 PM AKDT
Astronomical Twilight 3:28 AM AKDT 10:26 PM AKDT
Moon 9:16 PM AKDT (9/6) 2:01 PM AKDT (9/6)
Length of Visible Light 15h 01m
Length of Day
13h 35m
Waning Gibbous, 66% of the Moon is Illuminated
Sep 6
Waning Gibbous
Sep 8
Last Quarter
Sep 15
New
Sep 22
First Quarter
Sep 29
Full

Hourly Weather History & Observations

Time (AKDT) Temp. Dew Point Humidity Pressure Visibility Wind Dir Wind Speed Gust Speed Precip Events Conditions
12:53 AM 55.9 °F 45.0 °F 67% 30.05 in 10.0 mi SSW 21.9 mph 28.8 mph N/A   Overcast
1:53 AM 55.0 °F 42.1 °F 62% 30.07 in 10.0 mi SSW 26.5 mph 35.7 mph N/A   Overcast
2:53 AM 55.0 °F 41.0 °F 59% 30.09 in 10.0 mi SSW 20.7 mph 27.6 mph N/A   Overcast
3:53 AM 54.0 °F 43.0 °F 66% 30.12 in 10.0 mi SSW 26.5 mph 32.2 mph N/A   Overcast
4:53 AM 54.0 °F 43.0 °F 66% 30.13 in 10.0 mi SSW 26.5 mph 33.4 mph N/A   Mostly Cloudy
5:53 AM 53.1 °F 44.1 °F 71% 30.14 in 10.0 mi SSW 20.7 mph 27.6 mph N/A   Overcast
6:53 AM 54.0 °F 44.1 °F 69% 30.15 in 10.0 mi SSW 19.6 mph 28.8 mph N/A   Overcast
7:53 AM 53.1 °F 43.0 °F 69% 30.16 in 10.0 mi SSW 23.0 mph 31.1 mph N/A   Mostly Cloudy
8:53 AM 53.1 °F 44.1 °F 71% 30.17 in 10.0 mi SSW 21.9 mph 29.9 mph N/A   Overcast
9:53 AM 55.9 °F 44.1 °F 64% 30.19 in 10.0 mi SSW 21.9 mph 32.2 mph N/A   Overcast
10:53 AM 55.9 °F 43.0 °F 62% 30.19 in 10.0 mi SSW 20.7 mph 29.9 mph N/A   Clear
11:53 AM 57.0 °F 43.0 °F 59% 30.20 in 10.0 mi SSW 20.7 mph 27.6 mph N/A   Mostly Cloudy
12:53 PM 57.0 °F 43.0 °F 59% 30.20 in 10.0 mi SSW 19.6 mph - N/A   Mostly Cloudy
1:53 PM 57.0 °F 44.1 °F 62% 30.20 in 10.0 mi SSW 19.6 mph - N/A   Scattered Clouds
2:53 PM 57.0 °F 43.0 °F 59% 30.21 in 10.0 mi SSW 21.9 mph 29.9 mph N/A   Mostly Cloudy
3:53 PM 55.0 °F 42.1 °F 62% 30.21 in 10.0 mi SSW 24.2 mph - N/A   Overcast
4:53 PM 55.9 °F 42.1 °F 60% 30.22 in 10.0 mi SSW 21.9 mph 29.9 mph N/A   Overcast
5:53 PM 55.0 °F 42.1 °F 62% 30.22 in 10.0 mi SSW 23.0 mph 28.8 mph N/A   Overcast
6:53 PM 55.0 °F 42.1 °F 62% 30.24 in 10.0 mi SSW 19.6 mph - N/A   Overcast
7:53 PM 54.0 °F 42.1 °F 64% 30.25 in 10.0 mi SSW 16.1 mph 23.0 mph N/A   Overcast
8:53 PM 53.1 °F 42.1 °F 66% 30.27 in 10.0 mi SSW 17.3 mph 24.2 mph N/A   Overcast
9:53 PM 53.1 °F 42.1 °F 66% 30.29 in 10.0 mi SSW 16.1 mph - N/A   Overcast
10:53 PM 53.1 °F 42.1 °F 66% 30.30 in 10.0 mi SSW 13.8 mph - N/A   Mostly Cloudy
11:53 PM 53.1 °F 42.1 °F 66% 30.31 in 10.0 mi SSW 19.6 mph 23.0 mph N/A   Mostly Cloudy